sat.trackr.live / text

‹ back to catalog

KUIPER-00512

NORAD 68889 · 2026-095AB

PAYLOAD ACTIVE UNKNOWN

§ Identity

Operator
Country
US
Launch date
2026-04-28
Launch site
AFETR
Launch vehicle
Mass (kg)
RCS (m²)

External: N2YO · Heavens-Above · Gunter

§ Orbital elements

Epoch: 2026-05-25T04:00:03.998880Z

Period
94.27 min
Inclination
51.8856°
Eccentricity
0.0003583
Mean motion
15.27528073 rev/d
Perigee alt
480.7 km
Apogee alt
485.7 km
Semi-major
6,861.3 km
B*
-5.5833e-2
RAAN
353.9548°
Arg perigee
210.8003°
Mean anomaly
148.7506°
Rev number
527

§ Raw data

KUIPER-005121 68889U 26095AB  26145.16671295 -.01385312  00000+0 -55833-1 0  99952 68889  51.8856 353.9548 0003583 210.8003 148.7506 15.27528073  5279

JSON: /api/v1/satellites/68889 · /tle

For live sub-satellite position, see the globe view (requires WebGL).

§ Visibility from observer

Set your observer location to see the next 7 days of passes ≥ 10°. The values pass through the URL so the page stays shareable.

No JS? Fill the form by hand. The geolocation button needs JavaScript.